MET783 - Boston to Houston

Airbus A319-131
309MT
3 hrs 15 mins
1388 nm
Scheduled - Daily

Bid/PiRep Status

Bid was submitted on January 8th, 2017 1:58 UTC.
PiRep # 74655: Approved by Sean Doyle on January 8th, 2017 22:52 UTC

Departure

Departing from
Boston (BOS)
Departure gate
Scheduled Departure
GMT 1445
Local 1045

Arrival

Arriving at
Houston (IAH)
Arrival gate
Scheduled Arrival
GMT 1800
Local 1300
METAR KIAH 200653Z 11004KT 1/4SM BR OVC002 11/11 A3012 RMK AO2 SFC VIS 1 RAE01B28E47 SLP201 P0001 T01110111
TAF KIAH 200529Z 2006/2112 12010KT 2SM BR VCSH OVC003 FM200900 15005KT 1SM BR VCSH OVC003 FM201500 18007KT 4SM BR VCSH BKN007 OVC010 FM201800 17009G18KT P6SM VCSH OVC015 FM210000 16010KT 6SM BR VCSH OVC007 FM210300 16008KT 2SM BR VCSH OVC005

Route Map

Planning Resources

KBWI BINKS J75 GVE J42 SWAPP Q34 MEM J29 DARTR KIAH
KBWI BINKS J75 GVE J42 SWAPP Q34 MEM J29 VELCO DARTR KIAH
FLUKY PAUKI MOL J22 VUZ JAN AEX DAS8
KBWI PEPBI GRAAF VETTE NALIE KIAH
BINKS J75 GVE J42 MOL J22 VUZ J31 MEI J22 MCB J50 CIDOR J180 DAS
Route:
OFP Layout:
Units:
Detailed Navlog:
ETOPS Planning:
Plan Stepclimbs:
Runway Analysis:
Include NOTAMS:
FIR NOTAMS:
Flight Maps:

Return Flights

MET307
Airbus A320-231
2235 GMT
MET309
Airbus A321-232
1045 GMT

Popularity

Hub Current Bids PiReps this month Total PiReps
KLAX 0 0 2
KBOS 0 0 1
KDFW 0 0 0